Regional Weather Roundup
Issued by NWS

Home | Current Version | Previous Version | Text Only | Print | Product List | Glossary On
Versions: 1 2 3 4 5 6 7 8 9 10 11 12 13 14 15 16 17 18 19 20 21 22 23 24 25 26 27 28 29 30 31 32 33 34 35 36 37 38 39 40 41 42 43 44 45 46 47 48 49 50
000
ASUS43 KLSX 221510
RWRMO

WEATHER SUMMARY FOR MISSOURI
NATIONAL WEATHER SERVICE SPRINGFIELD MO
1000 AM CDT SAT JUL 22 2017

NOTE: "FAIR" INDICATES FEW OR NO CLOUDS BELOW 12,000 FEET WITH NO
       SIGNIFICANT WEATHER AND/OR OBSTRUCTIONS TO VISIBILITY.
       CURRENT SKY AND/OR WEATHER CONDITIONS ARE NOT AVAILABLE FOR
       CHILLICOTHE AND FARMINGTON.

MOZ001>031-035>038-043-044-053-054-221600-
...NORTHERN AND WESTERN MISSOURI...

CITY           SKY/WX    TMP DP  RH WIND       PRES   REMARKS
KANSAS CTY INT MOSUNNY   87  74  64 SW14      29.84S HX  95
KANSAS C DTWN  SUNNY     88  73  61 SW12      29.83S HX  95
LEE`S SUMMIT   SUNNY     88  72  58 W15       29.86R HX  94
ST JOSEPH      SUNNY     87  76  69 SW9       29.81F HX  97
CHILLICOTHE      N/A     88  76  67 VRB7      29.82S HX  99
KIRKSVILLE     SUNNY     87  74  64 S12       29.84F HX  95

$$
MOZ066>068-077>081-088>096-101>105-221600-
...SOUTHWEST MISSOURI...

CITY           SKY/WX    TMP DP  RH WIND       PRES   REMARKS
SPRINGFIELD    SUNNY     88  71  57 SW16      29.95F HX  94
JOPLIN         SUNNY     90  74  59 SW17G23   29.94S HX  99
BRANSON        SUNNY     86  72  62 SW7       30.00S HX  92

$$
MOZ032>034-039>042-045>050-055>058-069>072-221600-
...CENTRAL MISSOURI...

CITY           SKY/WX    TMP DP  RH WIND       PRES   REMARKS
COLUMBIA       SUNNY     90  72  55 W15       29.87F HX  97
JEFFERSON CITY SUNNY     89  75  63 SW9       29.86F HX  99
ROLLA          SUNNY     85  74  69 SW13      29.92S HX  92
SEDALIA        SUNNY     89  75  63 SW21G29   29.87F HX  99
WHITEMAN AFB   MOSUNNY   89  72  58 W14G23    29.84F HX  96
WARRENSBURG    SUNNY     88  70  55 SW14G22   29.85S HX  92
OSAGE BEACH    SUNNY     89  72  56 SW12      29.91F HX  96

$$
MOZ051-052-059>065-221600-
...EAST CENTRAL MISSOURI...

CITY           SKY/WX    TMP DP  RH WIND       PRES   REMARKS
ST LOUIS INTL  CLOUDY    85  70  60 NE18G25   29.95R
SPIRIT OF STL  CLOUDY    87  74  64 NE21      29.92F HX  95
ST CHARLES     CLOUDY    81  70  69 E17       29.92F

$$
MOZ072>076-082>087-097>100-106>115-221600-
...SOUTH CENTRAL AND SOUTHEAST MISSOURI...

CITY           SKY/WX    TMP DP  RH WIND       PRES   REMARKS
CAPE GIRARDEAU SUNNY     87  76  69 W8        29.94R HX  97
FARMINGTON     SUNNY     89  72  56 W8        29.95S HX  96
POPLAR BLUFF   SUNNY     87  79  76 SW7       29.94F HX 101
WEST PLAINS    SUNNY     87  72  60 SW10      29.99F HX  93

$$



USA.gov is the U.S. government's official web portal to all federal, state and local government web resources and services.